Satellite: NO-44
Catalog number: 26931
Epoch time:      10211.01982251
Element set:     520
Inclination:      067.0525 deg
RA of node:       093.6218 deg
Eccentricity:    0.0005133
Arg of perigee:   266.6714 deg
Mean anomaly:     093.3771 deg
Mean motion:   14.29605674 rev/day
Decay rate:       1.09e-06 rev/day^2
Epoch rev:           46087
Checksum:              286

Satellite: SO-50
Catalog number: 27607
Epoch time:      10210.48285366
Element set:     231
Inclination:      064.5561 deg
RA of node:       228.0485 deg
Eccentricity:    0.0036774
Arg of perigee:   057.2977 deg
Mean anomaly:     303.1669 deg
Mean motion:   14.71557492 rev/day
Decay rate:       -2.0e-08 rev/day^2
Epoch rev:           40860
Checksum:              305

Satellite: CO-55
Catalog number: 27844
Epoch time:      10210.56244351
Element set:     900
Inclination:      098.7099 deg
RA of node:       218.9287 deg
Eccentricity:    0.0010920
Arg of perigee:   050.8269 deg
Mean anomaly:     309.3892 deg
Mean motion:   14.20720089 rev/day
Decay rate:        5.5e-07 rev/day^2
Epoch rev:           36710
Checksum:              304

Satellite: CO-57
Catalog number: 27848
Epoch time:      10209.54167995
Element set:    0850
Inclination:      098.7144 deg
RA of node:       217.0242 deg
Eccentricity:    0.0010833
Arg of perigee:   057.8585 deg
Mean anomaly:     302.3652 deg
Mean motion:   14.20511793 rev/day
Decay rate:        5.0e-07 rev/day^2
Epoch rev:           36691
Checksum:              311

Satellite: AO-51
Catalog number: 28375
Epoch time:      10209.68085420
Element set:    0736
Inclination:      098.0642 deg
RA of node:       200.8179 deg
Eccentricity:    0.0084352
Arg of perigee:   332.2439 deg
Mean anomaly:     027.4256 deg
Mean motion:   14.40692023 rev/day
Decay rate:        6.0e-08 rev/day^2
Epoch rev:           31948
Checksum:              296

Satellite: GENESAT1
Catalog number: 29655
Epoch time:      10210.83748197
Element set:     207
Inclination:      040.0099 deg
RA of node:       106.7615 deg
Eccentricity:    0.0013119
Arg of perigee:   272.9540 deg
Mean anomaly:     086.9762 deg
Mean motion:   16.16306164 rev/day
Decay rate:    8.46978e-03 rev/day^2
Epoch rev:           20683
Checksum:              319

Satellite: CP3
Catalog number: 31129
Epoch time:      10208.72822494
Element set:    0639
Inclination:      097.9366 deg
RA of node:       246.1249 deg
Eccentricity:    0.0103827
Arg of perigee:   107.9025 deg
Mean anomaly:     253.3558 deg
Mean motion:   14.52280958 rev/day
Decay rate:      -1.78e-06 rev/day^2
Epoch rev:           17374
Checksum:              322

Satellite: CO-65
Catalog number: 32785
Epoch time:      10209.22431302
Element set:    0744
Inclination:      097.8936 deg
RA of node:       273.5792 deg
Eccentricity:    0.0015401
Arg of perigee:   147.0881 deg
Mean anomaly:     213.1278 deg
Mean motion:   14.81686165 rev/day
Decay rate:       4.54e-06 rev/day^2
Epoch rev:           12156
Checksum:              305

Satellite: KKS-1
Catalog number: 33493
Epoch time:      10210.95327096
Element set:     706
Inclination:      098.0899 deg
RA of node:       330.8199 deg
Eccentricity:    0.0020283
Arg of perigee:   006.8499 deg
Mean anomaly:     353.2970 deg
Mean motion:   14.81044718 rev/day
Decay rate:       3.88e-06 rev/day^2
Epoch rev:            8181
Checksum:              322

Satellite: SOHLA-1
Catalog number: 33496
Epoch time:      10209.69652775
Element set:    0167
Inclination:      098.0622 deg
RA of node:       318.2394 deg
Eccentricity:    0.0007755
Arg of perigee:   073.9675 deg
Mean anomaly:     286.2394 deg
Mean motion:   14.69505687 rev/day
Decay rate:       1.70e-06 rev/day^2
Epoch rev:           08097
Checksum:              344

Satellite: TISAT-1
Catalog number: 36799
Epoch time:      10209.69704101
Element set:      37
Inclination:      098.1457 deg
RA of node:       269.0818 deg
Eccentricity:    0.0014431
Arg of perigee:   240.1269 deg
Mean anomaly:     119.8467 deg
Mean motion:   14.80127943 rev/day
Decay rate:       2.88e-06 rev/day^2
Epoch rev:             245
Checksum:              304

Satellite: STUDSAT
Catalog number: 36801
Epoch time:      10210.58032597
Element set:      40
Inclination:      098.1468 deg
RA of node:       269.9666 deg
Eccentricity:    0.0013956
Arg of perigee:   229.4815 deg
Mean anomaly:     130.5682 deg
Mean motion:   14.79749831 rev/day
Decay rate:       2.50e-06 rev/day^2
Epoch rev:             258
Checksum:              309

/EX
SB KEPS @ AMSAT  $ORB10210.W
Orbital Elements  10210.WEATHER

HR AMSAT ORBITAL ELEMENTS FOR WEATHER SATELLITES
FROM WA5QGD FORT WORTH,TX July 29, 2010
Send Subscribe/unsubscribe to KEPS at http://www.amsat.org/mailman/listinfo/kep
BID: ORB10210.W
TO ALL RADIO AMATEURS BT

Satellite: NOAA-10
Catalog number: 16969
Epoch time:      10209.93039760
Element set:    0150
Inclination:      098.6543 deg
RA of node:       238.5021 deg
Eccentricity:    0.0013224
Arg of perigee:   090.1716 deg
Mean anomaly:     270.0964 deg
Mean motion:   14.27421877 rev/day
Decay rate:       -8.5e-07 rev/day^2
Epoch rev:           24153
Checksum:              290

